Location: Newark
(37.8444°N, 127.0614°E)
Time: 11:09:47
(UTC+00:00)

XW-2F - Pass Details

Date: 23 January 2020
Orbit: 502 x 523 km, 97.5° (Epoch: 25 February)

Event Time Altitude Azimuth Distance (km) Brightness Sun altitude
Rises 09:18:46 0° 185° (S) 2,632 ? -7.2°
Reaches altitude 10° 09:20:59 10° 194° (SSW) 1,746 ? -7.6°
Maximum altitude 09:24:28 36° 262° (W) 839 ? -8.2°
Drops below altitude 10° 09:27:58 10° 330° (NNW) 1,749 ? -8.9°
Sets 09:30:11 0° 339° (NNW) 2,636 ? -9.3°
